Regional Weather Roundup
Issued by NWS Little Rock, AR

Home | Current Version | Previous Version | Text Only | Print | Product List | Glossary On
Versions: 1 2 3 4 5 6 7 8 9 10 11 12 13 14 15 16 17 18 19 20 21 22 23 24 25 26 27 28 29 30 31 32 33 34 35 36 37 38 39 40 41 42 43 44 45 46 47 48 49 50
000
ASUS44 KLZK 252205
RWRLZK

WEATHER ROUNDUP FOR ARKANSAS
NATIONAL WEATHER SERVICE LITTLE ROCK AR
400 PM CST TUE NOV 25 2014

NOTE: "FAIR" INDICATES FEW OR NO CLOUDS BELOW 12,000 FEET WITH NO
SIGNIFICANT WEATHER AND/OR OBSTRUCTIONS TO VISIBILITY.

ARZ001-003-010-029-252300-
NORTHWEST ARKANSAS

CITY           SKY/WX    TMP DP  RH WIND       PRES   REMARKS
FAYETTEVILLE   SUNNY     45  21  38 W3        30.15F
FORT SMITH     SUNNY     51  20  29 W7        30.16F
HARRISON       CLEAR     47  18  31 W6        30.13S
BENTONVILLE    SUNNY     46  21  36 NW8       30.16S
ROGERS         SUNNY     45  21  38 W6        30.15S
SILOAM SPGS    SUNNY     46  21  36 NW9       30.16F
HIGHFILL       SUNNY     47  22  37 W8        30.14F
SPRINGDALE     SUNNY     46  21  36 NW8       30.16F
$$

ARZ004-005-016-252300-
NORTH CENTRAL ARKANSAS

CITY           SKY/WX    TMP DP  RH WIND       PRES   REMARKS
BATESVILLE     CLEAR     52  18  25 W5        30.15S
FLIPPIN        CLEAR     48  18  29 N3        30.15S
MTN HOME       CLEAR     46  16  30 NW5       30.14S
$$

ARZ040-041-252300-
WEST CENTRAL ARKANSAS

CITY           SKY/WX    TMP DP  RH WIND       PRES   REMARKS
MENA           SUNNY     55  25  30 W6        30.14S
MOUNT IDA      SUNNY     56  23  27 CALM      30.13
$$

ARZ009-017-025-026-028-252300-
NORTHEAST ARKANSAS

CITY           SKY/WX    TMP DP  RH WIND       PRES   REMARKS
CORNING        FAIR      46  23  39 CALM      30.16S HAZE
JONESBORO      CLEAR     48  25  40 CALM      30.16F
NEWPORT        CLEAR     49  21  33 N3        30.17F
WALNUT RIDGE   CLEAR     48  19  32 CALM      30.15S
BLYTHEVILLE    PTCLDY    53  30  41 NW6       30.18R
NW BLYTHEVILLE MOCLDY    45  30  57 CALM      30.17
$$

ARZ022-023-033-042-044-252300-
CENTRAL ARKANSAS

CITY           SKY/WX    TMP DP  RH WIND       PRES   REMARKS
LITTLE ROCK    PTCLDY    55  14  19 CALM      30.17S
N LITTLE ROCK  PTCLDY    52  22  30 W3        30.17S
JACKSONVILLE   CLEAR     53  19  26 W2        30.16S
SEARCY         CLEAR     52  18  26 NW3       30.17S
HOT SPRINGS    SUNNY     55  22  27 NW5       30.16S
RUSSELLVILLE   SUNNY     53  18  25 W6        30.15F
CLINTON        FAIR      54  18  24 CALM      30.15S
$$

ARZ036-252300-
EAST ARKANSAS

CITY           SKY/WX    TMP DP  RH WIND       PRES   REMARKS
WEST MEMPHIS   MOCLDY    45  28  51 NW5       30.17S
$$

ARZ050-053-066-070-073-252300-
SOUTHWEST ARKANSAS

CITY           SKY/WX    TMP DP  RH WIND       PRES   REMARKS
ARKADELPHIA    FAIR      57  26  30 VRB3      30.17S
CAMDEN         SUNNY     57  23  26 CALM      30.18S
TEXARKANA      SUNNY     58  23  26 S3        30.16F
EL DORADO      SUNNY     55  25  31 W3        30.18F
DE QUEEN       SUNNY     58  25  28 SW8       30.14F
$$

ARZ056-057-069-252300-
SOUTHEAST ARKANSAS

CITY           SKY/WX    TMP DP  RH WIND       PRES   REMARKS
PINE BLUFF     CLEAR     53  26  35 E5        30.17S
STUTTGART      PTCLDY    54  23  30 CALM      30.18S
MONTICELLO     MOSUNNY   52  28  39 CALM      30.18S

$$





USA.gov is the U.S. government's official web portal to all federal, state and local government web resources and services.